Location: Caltech
(34.1382°N, 118.1253°W)
Time: 02:31:16
(UTC-08:00)

UOSAT-12 - Visible Passes

Search period start: 27 November 2014 00:00
Search period end: 07 December 2014 00:00
Orbit: 594 x 663 km, 64.6° (Epoch: 26 November)

Date Brightness Start Highest point End Pass type
(mag) Time Alt. Az. Time Alt. Az. Time Alt. Az.
27 Nov 7.0 04:45:03 56° SW 04:45:58 78° WNW 04:50:41 10° NNE visible
28 Nov 10.0 03:29:25 13° ENE 03:29:25 13° ENE 03:30:11 10° ENE visible
28 Nov 7.9 05:06:50 33° NW 05:06:50 33° NW 05:10:45 10° N visible
29 Nov 9.8 03:50:38 14° NE 03:50:38 14° NE 03:51:18 10° NE visible
29 Nov 8.9 05:28:03 16° NW 05:28:03 16° NW 05:30:08 10° N visible
30 Nov 9.8 04:11:30 11° NNE 04:11:30 11° NNE 04:11:44 10° NNE visible
